This is the latest recevied weather packets stored in our database for station/object HP1MRA-15. If no packets are shown the sender has not sent any weather packets the latest 10 day(s).
| Time | Temp. | Humidity | Pressure | Rain* | Wind** | Luminosity | Snow |
|---|---|---|---|---|---|---|---|
| 1777569779 | 37.78° C | 45% | 999.6 hPa | 0 mm | - | - | - |
| 1777569478 | 38.33° C | 44% | 999.7 hPa | 0 mm | - | - | - |
| 1777569179 | 39.44° C | 42% | 999.8 hPa | 0 mm | - | - | - |
| 1777568878 | 40.56° C | 41% | 999.9 hPa | 0 mm | - | - | - |
| 1777568579 | 40° C | 47% | 1000 hPa | 0 mm | - | - | - |
| 1777568278 | - | - | 999.9 hPa | 0 mm | - | - | - |
| 1777567978 | 37.78° C | 49% | 1000 hPa | 0 mm | - | - | - |
| 1777567679 | 37.22° C | 50% | 1000.1 hPa | 0 mm | - | - | - |
| 1777567378 | - | - | 1000.1 hPa | 0 mm | - | - | - |
| 1777567078 | 36.67° C | 51% | 1000.1 hPa | 0 mm | - | - | - |
| 1777566778 | 36.11° C | 50% | 1000.2 hPa | 0 mm | - | - | - |
| 1777566478 | 36.11° C | 51% | 1000.2 hPa | 0 mm | - | - | - |
| 1777566178 | 35.56° C | 51% | 1000.2 hPa | 0 mm | - | - | - |
| 1777565878 | 35.56° C | 52% | 1000.3 hPa | 0 mm | - | - | - |
| 1777565578 | 35.56° C | 51% | 1000.3 hPa | 0 mm | - | - | - |
| 1777565276 | 36.11° C | 50% | 1000.2 hPa | 0 mm | - | - | - |
| 1777564976 | 37.22° C | 48% | 1000 hPa | 0 mm | - | - | - |
| 1777564676 | 37.22° C | 49% | 1000.1 hPa | 0 mm | - | - | - |
| 1777564375 | 37.78° C | 47% | 1000 hPa | 0 mm | - | - | - |
| 1777564073 | 37.78° C | 48% | 1000 hPa | 0 mm | - | - | - |
| 1777563475 | 36.67° C | 49% | 1000.3 hPa | 0 mm | - | - | - |
| 1777563172 | 36.67° C | 49% | 1000.3 hPa | 0 mm | - | - | - |
| 1777562873 | 36.67° C | 49% | 1000.3 hPa | 0 mm | - | - | - |
| 1777562572 | - | - | 1000.3 hPa | 0 mm | - | - | - |
| 1777562271 | 37.22° C | 48% | 1000.2 hPa | 0 mm | - | - | - |
* Rain latest hour (hover to see other rain measurements)
** Current wind speed in m/s (hover to see current wind gust speed)